Home   Weather   41°21'N, 81°35'W   Past weeks
Flag for USA

Past Weather in 41°21'N, 81°35'W, USA — Yesterday and Last 2 Weeks

Now
65 °F

Partly sunny.


Feels Like: 65 °F
Forecast: 66 / 51 °F
Wind: 17 mph from Southwest

Location: Cleveland-Hopkins International Airport

Current Time: Oct 22, 2019 at 3:29:19 pm

Latest Report: Oct 22, 2019 at 2:51 pm


Visibility: 10 mi

Pressure: 29.69 "Hg

Humidity: 39%

Dew Point: 39 °F

Location of 41°21'N, 81°35'WLocation

Past Weather in 41°21'N, 81°35'W — Graph

°F

41°21'N, 81°35'W Temperature Yesterday

Maximum temperature yesterday: 75 °F (at 2:51 pm)
Minimum temperature yesterday: 50 °F (at 1:51 am)
Average temperature yesterday: 64 °F

High & Low Weather Summary for the Past Weeks

 TemperatureHumidityPressure
High81 °F (Oct 11, 2:51 pm)93% (Oct 8, 1:51 am)30.31 "Hg (Oct 8, 1:51 am)
Low37 °F (Oct 15, 5:51 am)21% (Oct 13, 3:51 pm)29.64 "Hg (Oct 16, 4:59 am)
Average56 °F63%30.00 "Hg
* Reported Oct 7 1:51 pm — Oct 22 1:51 pm, 41°21'N, 81°35'W. Weather by CustomWeather, © 2019

Note: Actual official high and low records may vary slightly from our data, if they occured in-between our weather recording intervals... More about our weather records

Advertising

41°21'N, 81°35'W Weather History for the Previous 24 Hours

Scroll right to see more
 ConditionsComfort  
Time TempWeatherWind HumidityBarometerVisibility
1:51 pm
Tue, Oct 22
66 °FPassing clouds.17 mph39%29.69 "Hg10 mi
12:51 pm65 °FScattered clouds.21 mph39%29.70 "Hg10 mi
11:51 am65 °FPassing clouds.22 mph40%29.70 "Hg10 mi
10:51 am61 °FPassing clouds.10 mph50%29.72 "Hg10 mi
9:51 am57 °FScattered clouds.8 mph67%29.72 "Hg10 mi
8:51 am57 °FBroken clouds.8 mph67%29.74 "Hg10 mi
8:18 am57 °FLight rain. Cloudy.9 mph72%29.74 "Hg10 mi
7:51 am58 °FLight rain. Mostly cloudy.No wind72%29.70 "Hg10 mi
7:29 am61 °FOvercast.10 mph83%29.76 "Hg10 mi
6:51 am61 °FMostly cloudy.10 mph87%29.75 "Hg10 mi
5:51 am61 °FOvercast.8 mph87%29.70 "Hg10 mi
4:51 am61 °FMostly cloudy.7 mph87%29.72 "Hg10 mi
3:51 am62 °FMostly cloudy.9 mph86%29.73 "Hg10 mi
2:51 am62 °FMostly cloudy.13 mph86%29.74 "Hg10 mi
1:51 am62 °FLight rain. Overcast.15 mph86%29.74 "Hg10 mi
12:51 am63 °FLight rain. Overcast.13 mph87%29.75 "Hg10 mi
11:51 pm
Mon, Oct 21
64 °FLight rain. Mostly cloudy.14 mph87%29.76 "Hg9 mi
9:51 pm73 °FMostly cloudy.13 mph50%29.72 "Hg10 mi
8:51 pm71 °FMostly cloudy.15 mph49%29.73 "Hg10 mi
7:51 pm70 °FPassing clouds.12 mph53%29.75 "Hg10 mi
6:51 pm71 °FMostly cloudy.13 mph49%29.76 "Hg10 mi
5:51 pm71 °FMore clouds than sun.10 mph49%29.77 "Hg10 mi
4:51 pm69 °FLight rain. Mostly cloudy.13 mph55%29.79 "Hg10 mi
3:51 pm73 °FMostly cloudy.9 mph38%29.80 "Hg10 mi
Weather by CustomWeather, © 2019

See weather overview